Regional Weather Roundup
Issued by NWS Jackson, KY

Home | Current Version | Previous Version | Graphics & Text | Print | Product List | Glossary On
Versions: 1 2 3 4 5 6 7 8 9 10 11 12 13 14 15 16 17 18 19 20 21 22 23 24 25 26 27 28 29
000
ASUS43 KJKL 282310
RWRJKL

EAST KENTUCKY HOURLY WEATHER ROUNDUP
NATIONAL WEATHER SERVICE JACKSON KY
700 PM EDT THU APR 28 2016

NOTE: "FAIR" INDICATES FEW OR NO CLOUDS BELOW 12,000 FEET WITH
NO SIGNIFICANT WEATHER AND/OR OBSTRUCTIONS TO VISIBILITY.

* THESE REPORTS ARE NOT UNDER NWS QUALITY CONTROL AND MAY NOT
  REPORT WEATHER SUCH AS PRECIPITATION AND FOG.

KYZ079-080-083-085-087-088-110-112-115-119-120-290000
...EASTERN KENTUCKY...

CITY           SKY/WX    TMP DP  RH WIND       PRES   REMARKS
JACKSON        CLOUDY    71  57  61 VRB5      29.88F
LONDON         SUNNY     76  58  53 W13       29.89R
SOMERSET*      MOSUNNY   73  55  53 W8        29.90S
MONTICELLO*    MOSUNNY   78  58  49 W18G26    29.91R
WILLIAMSBURG*  CLEAR     77  52  41 W8G16     29.90R
MIDDLESBORO*   MOSUNNY   80  53  37 W7        29.89R
HARLAN APT*      N/A     77  52  41 W7        29.90R
HAZARD APT*    PTCLDY    77  54  44 SW9       29.88
BLACK MTN*       N/A     64  55  72 S1          N/A
PIKE CO APT*   LGT RAIN  75  53  46 W12       29.88R
BIG SANDY APT* RAIN      67  62  84 NW10G23   29.90R
MOREHEAD APT*  MOCLDY    73  61  64 CALM      29.87R
$$

KYZ035-036-041-042-044-050-067-078-099-290000
...CENTRAL KENTUCKY...

CITY           SKY/WX    TMP DP  RH WIND       PRES   REMARKS
MT STERLING*   SUNNY     75  59  57 W10G23    29.87R
FLEMING/MASON* MOSUNNY  N/A N/A N/A W16G22    29.84S
DANVILLE*      MOSUNNY   75  54  46 W14G21    29.89R
RICHMOND*      SUNNY     77  57  50 W12       29.87R
LEXINGTON      MOSUNNY   76  52  43 W15G25    29.86R
FRANKFORT      SUNNY     77  49  37 W10G23    29.86R
LOUISVILLE     MOSUNNY   76  46  34 W17       29.87R
LEBANON*         N/A     75  54  46 W15G21    29.89R
BOWLING GREEN  SUNNY     79  51  37 W10       29.90R
$$

KYZ091>093-OHZ055-061-077-WVZ005-015-034-035-042-290000
...SOUTHERN OHIO/WEST VIRGINIA...

CITY           SKY/WX    TMP DP  RH WIND       PRES   REMARKS
COVINGTON      MOSUNNY   74  51  44 W17G25    29.84R
COLUMBUS       PTSUNNY   61  53  75 N7        29.85R
DAYTON         PTSUNNY   61  57  87 N13       29.86S
WILMINGTON     MOSUNNY   67  60  78 SE5       29.82S
HUNTINGTON     CLOUDY    72  57  59 VRB5      29.84R
CHARLESTON       N/A     74  56  53 W6        29.83S
PINEVILLE*       N/A     78  50  38 MISG      29.91S
BECKLEY        PTSUNNY   72  51  47 W12G17    29.89R
$$

VAZ002-007-008-TNZ017-027-036-066-071-290000
...SOUTHWEST VIRGINIA/EAST TENNESSEE...

CITY           SKY/WX    TMP DP  RH WIND       PRES   REMARKS
WISE*            N/A     72  45  37 W14       29.95S
BRISTOL        MOSUNNY   78  54  43 W9        29.89R
MORRISTOWN*    CLEAR     79  54  41 W12       29.89S
SEVIERVILLE*   CLEAR     81  54  39 W10       29.89S
KNOXVILLE      MOSUNNY   80  57  45 SW8       29.89S
OAK RIDGE      SUNNY     80  54  40 VRB6      29.90S
CROSSVILLE     MOSUNNY   75  55  49 W7        29.96R
NASHVILLE      MOSUNNY   82  52  35 W8        29.92R
$$

...KEY TO REMARKS...
VSB - VISIBILITY IN MILES
WCI - WIND CHILL INDEX
HX  - HEAT INDEX

$$




USA.gov is the U.S. government's official web portal to all federal, state and local government web resources and services.